| time (UTC) | temp F | wind direction | speed MPH | gust MPH | rain 1hr in | rain 24hr in | rain mn in | humidity % | barometer mb |
| 20260504224501 | 58 | 263 | 6.0 | 16.0 | 0.00 | 0.00 | 0.00 | 69 | 1009.7 |
| 20260504223038 | 58 | 236 | 7.0 | 18.0 | 0.00 | 0.00 | 0.00 | 67 | 1009.7 |
| 20260504221555 | 59 | 223 | 5.0 | 15.0 | 0.00 | 0.00 | 0.00 | 66 | 1009.8 |
| 20260504220059 | 59 | 186 | 3.0 | 17.0 | 0.00 | 0.00 | 0.00 | 65 | 1009.7 |
| 20260504214533 | 60 | 209 | 10.0 | 21.0 | 0.00 | 0.00 | 0.00 | 64 | 1009.8 |
| 20260504213056 | 61 | 277 | 7.0 | 16.0 | 0.00 | 0.00 | 0.00 | 61 | 1009.8 |
| 20260504211525 | 61 | 227 | 9.0 | 19.0 | 0.00 | 0.00 | 0.00 | 60 | 1009.7 |
| 20260504210039 | 62 | 159 | 6.0 | 16.0 | 0.00 | 0.00 | 0.00 | 59 | 1009.8 |
| 20260504204551 | 64 | 221 | 8.0 | 17.0 | 0.00 | 0.00 | 0.00 | 53 | 1009.8 |
| 20260504203103 | 64 | 254 | 6.0 | 20.0 | 0.00 | 0.00 | 0.00 | 54 | 1009.6 |
| 20260504201616 | 64 | 264 | 11.0 | 21.0 | 0.00 | 0.00 | 0.00 | 53 | 1009.3 |
| 20260504200027 | 63 | 295 | 6.0 | 16.0 | 0.00 | 0.00 | 0.00 | 56 | 1009.7 |
| 20260504194550 | 63 | 222 | 9.0 | 13.0 | 0.00 | 0.00 | 0.00 | 56 | 1009.6 |
| 20260504193118 | 63 | 251 | 8.0 | 20.0 | 0.00 | 0.00 | 0.00 | 57 | 1009.7 |
| 20260504191534 | 63 | 221 | 7.0 | 16.0 | 0.00 | 0.00 | 0.00 | 56 | 1009.7 |
| 20260504190107 | 64 | 214 | 7.0 | 21.0 | 0.00 | 0.00 | 0.00 | 54 | 1009.9 |
| 20260504184503 | 64 | 240 | 4.0 | 23.0 | 0.00 | 0.00 | 0.00 | 51 | 1010.0 |
| 20260504183041 | 64 | 241 | 7.0 | 22.0 | 0.00 | 0.00 | 0.00 | 51 | 1010.0 |
| 20260504181541 | 64 | 227 | 7.0 | 17.0 | 0.00 | 0.00 | 0.00 | 49 | 1010.4 |
| 20260504180056 | 64 | 287 | 8.0 | 15.0 | 0.00 | 0.00 | 0.00 | 46 | 1010.6 |
| 20260504174510 | 62 | 201 | 4.0 | 16.0 | 0.00 | 0.00 | 0.00 | 53 | 1010.8 |
| 20260504173041 | 64 | 252 | 7.0 | 19.0 | 0.00 | 0.00 | 0.00 | 45 | 1010.7 |
| 20260504171544 | 64 | 232 | 6.0 | 18.0 | 0.00 | 0.00 | 0.00 | 43 | 1010.8 |
| 20260504081533 | 38 | 355 | 0.0 | 0.0 | 0.00 | 0.00 | 0.00 | 84 | 1011.8 |
| 20260504050016 | 38 | 355 | 0.0 | 1.0 | 0.00 | 0.00 | 0.00 | 79 | 1011.2 |
| 20260504044536 | 39 | 351 | 0.0 | 3.0 | 0.00 | 0.00 | 0.00 | 80 | 1011.3 |
| 20260504043039 | 38 | 288 | 0.0 | 2.0 | 0.00 | 0.00 | 0.00 | 79 | 1011.5 |
| 20260504041556 | 39 | 269 | 0.0 | 1.0 | 0.00 | 0.00 | 0.00 | 78 | 1011.3 |
| 20260504040007 | 39 | 269 | 0.0 | 1.0 | 0.00 | 0.00 | 0.00 | 76 | 1011.2 |
| 20260504034542 | 40 | 269 | 0.0 | 1.0 | 0.00 | 0.00 | 0.00 | 74 | 1011.2 |
| 20260504033113 | 41 | 269 | 0.0 | 1.0 | 0.00 | 0.00 | 0.00 | 74 | 1011.2 |
| 20260504031530 | 42 | 269 | 0.0 | 1.0 | 0.00 | 0.00 | 0.00 | 71 | 1011.3 |
| 20260504030040 | 42 | 269 | 0.0 | 1.0 | 0.00 | 0.00 | 0.00 | 69 | 1011.1 |
| 20260504024521 | 43 | 269 | 0.0 | 0.0 | 0.00 | 0.00 | 0.00 | 67 | 1011.0 |
| 20260504023039 | 43 | 269 | 0.0 | 0.0 | 0.00 | 0.00 | 0.00 | 66 | 1011.0 |
| 20260504021559 | 43 | 269 | 0.0 | 0.0 | 0.00 | 0.00 | 0.00 | 65 | 1011.0 |
| 20260504020003 | 43 | 269 | 0.0 | 2.0 | 0.00 | 0.00 | 0.00 | 64 | 1011.0 |
| 20260504014537 | 43 | 269 | 0.0 | 1.0 | 0.00 | 0.00 | 0.00 | 61 | 1010.8 |
| 20260504013106 | 44 | 269 | 0.0 | 1.0 | 0.00 | 0.00 | 0.00 | 59 | 1010.6 |
| 20260504011514 | 45 | 269 | 0.0 | 0.0 | 0.00 | 0.00 | 0.00 | 58 | 1010.4 |
| 20260504010050 | 47 | 269 | 0.0 | 0.0 | 0.00 | 0.00 | 0.00 | 55 | 1010.3 |
| 20260504004538 | 48 | 269 | 0.0 | 0.0 | 0.00 | 0.00 | 0.00 | 51 | 1010.0 |
| 20260504003047 | 50 | 269 | 0.0 | 0.0 | 0.00 | 0.00 | 0.00 | 48 | 1009.8 |
| 20260504001522 | 51 | 269 | 0.0 | 0.0 | 0.00 | 0.00 | 0.00 | 44 | 1009.7 |
| 20260503234532 | 54 | 279 | 0.0 | 3.0 | 0.00 | 0.00 | 0.00 | 38 | 1009.2 |
| 20260503233008 | 54 | 294 | 1.0 | 5.0 | 0.00 | 0.00 | 0.00 | 36 | 1009.1 |
| 20260503231533 | 55 | 319 | 2.0 | 9.0 | 0.00 | 0.00 | 0.00 | 36 | 1009.0 |
| 20260503230057 | 56 | 306 | 1.0 | 12.0 | 0.00 | 0.00 | 0.00 | 35 | 1009.1 |